Regional Weather Roundup
Issued by NWS Little Rock, AR

Home | Current Version | Previous Version | Text Only | Print | Product List | Glossary On
Versions: 1 2 3 4 5 6 7 8 9 10 11 12 13 14 15 16 17 18 19 20 21 22 23 24 25 26 27 28 29 30 31 32 33 34 35 36 37 38 39 40 41 42 43 44 45 46 47 48
000
ASUS44 KLZK 010305
RWRLZK

WEATHER ROUNDUP FOR ARKANSAS
NATIONAL WEATHER SERVICE LITTLE ROCK AR
1000 PM CDT MON AUG 31 2015

NOTE: "FAIR" INDICATES FEW OR NO CLOUDS BELOW 12,000 FEET WITH NO
SIGNIFICANT WEATHER AND/OR OBSTRUCTIONS TO VISIBILITY.

ARZ001-003-010-029-010400-
NORTHWEST ARKANSAS

CITY           SKY/WX    TMP DP  RH WIND       PRES   REMARKS
FAYETTEVILLE   PTCLDY    72  70  93 CALM      30.07R
FORT SMITH     CLEAR     77  66  68 NE7       30.01R
BENTONVILLE    PTCLDY    75  64  69 SE6       30.07R
ROGERS         PTCLDY    77  69  76 SE6       30.08R
SILOAM SPGS    CLEAR     75  64  69 SE5       30.04S
HIGHFILL       PTCLDY    77  69  76 S6        30.06R
$$

ARZ004-005-016-010400-
NORTH CENTRAL ARKANSAS

CITY           SKY/WX    TMP DP  RH WIND       PRES   REMARKS
BATESVILLE     CLEAR     73  70  88 CALM      30.05S
FLIPPIN        CLEAR     73  64  73 CALM      30.05R
MTN HOME       CLEAR     75  69  81 CALM      30.06R
$$

ARZ040-041-010400-
WEST CENTRAL ARKANSAS

CITY           SKY/WX    TMP DP  RH WIND       PRES   REMARKS
MENA           CLEAR     73  70  88 CALM      30.06S
MOUNT IDA      CLEAR     73  70  90 CALM      30.03R
$$

ARZ009-017-025-026-028-010400-
NORTHEAST ARKANSAS

CITY           SKY/WX    TMP DP  RH WIND       PRES   REMARKS
JONESBORO      CLEAR     72  70  93 E3        30.05S
NEWPORT        CLEAR     76  73  90 E6        30.06R
WALNUT RIDGE   CLEAR     75  70  83 SE5       30.05S
BLYTHEVILLE    CLEAR     77  70  79 SE5       30.07R
$$

ARZ022-023-033-042-044-010400-
CENTRAL ARKANSAS

CITY           SKY/WX    TMP DP  RH WIND       PRES   REMARKS
LITTLE ROCK    PTCLDY    82  68  62 CALM      30.03R HX  85
N LITTLE ROCK  PTCLDY    82  71  68 SE5       30.03R HX  86
JACKSONVILLE   CLEAR     76  69  80 CALM      30.03R
SEARCY         CLEAR     77  71  82 E3        30.05R
HOT SPRINGS    CLEAR     77  68  73 CALM      30.04R
RUSSELLVILLE   CLEAR     73  69  87 CALM      30.03R
$$

ARZ036-010400-
EAST ARKANSAS

CITY           SKY/WX    TMP DP  RH WIND       PRES   REMARKS
WEST MEMPHIS   PTCLDY    75  71  87 SE5       30.05R
$$

ARZ050-053-066-070-073-010400-
SOUTHWEST ARKANSAS

CITY           SKY/WX    TMP DP  RH WIND       PRES   REMARKS
ARKADELPHIA    FAIR      75  73  93 CALM      30.02R
CAMDEN         CLEAR     73  68  83 CALM      30.01S
TEXARKANA      CLEAR     75  66  73 CALM      30.01R
EL DORADO      PTCLDY    73  62  68 CALM      30.02R
DE QUEEN       CLEAR     73  69  87 CALM      30.00R
$$

ARZ056-057-069-010400-
SOUTHEAST ARKANSAS

CITY           SKY/WX    TMP DP  RH WIND       PRES   REMARKS
PINE BLUFF     CLEAR     75  70  84 CALM      30.03R
STUTTGART      CLEAR     82  66  57 E7        30.03S HX  85
MONTICELLO     PTCLDY    76  70  82 CALM      30.02S

$$





USA.gov is the U.S. government's official web portal to all federal, state and local government web resources and services.